TimePDT,TemperatureF,Dew PointF,Humidity,Sea Level PressureIn,VisibilityMPH,Wind Direction,Wind SpeedMPH,Gust SpeedMPH,PrecipitationIn,Events,Conditions,WindDirDegrees,DateUTC
12:55 AM,44.1,34.0,68,30.00,10.0,ESE,3.5,-,N/A,,Clear,110,2012-10-09 07:55:00
1:55 AM,42.1,33.1,70,30.00,10.0,Calm,Calm,-,N/A,,Clear,0,2012-10-09 08:55:00
2:55 AM,42.1,33.1,70,30.00,10.0,Calm,Calm,-,N/A,,Clear,0,2012-10-09 09:55:00
3:55 AM,36.0,30.9,82,30.01,10.0,Calm,Calm,-,N/A,,Clear,0,2012-10-09 10:55:00
4:55 AM,34.0,28.0,79,30.01,10.0,Calm,Calm,-,N/A,,Clear,0,2012-10-09 11:55:00
5:55 AM,35.1,30.9,85,30.03,10.0,Calm,Calm,-,N/A,,Clear,0,2012-10-09 12:55:00
6:55 AM,32.0,30.0,92,30.06,10.0,Calm,Calm,-,N/A,,Clear,0,2012-10-09 13:55:00
7:55 AM,33.1,30.0,89,30.07,10.0,Calm,Calm,-,N/A,,Clear,0,2012-10-09 14:55:00
8:55 AM,45.0,35.1,68,30.05,10.0,Calm,Calm,-,N/A,,Clear,0,2012-10-09 15:55:00
9:55 AM,52.0,37.9,59,30.04,10.0,Calm,Calm,-,N/A,,Clear,0,2012-10-09 16:55:00
10:55 AM,55.0,39.0,55,30.03,10.0,Calm,Calm,-,N/A,,Clear,0,2012-10-09 17:55:00
11:55 AM,61.0,37.9,42,30.01,10.0,West,3.5,-,N/A,,Clear,270,2012-10-09 18:55:00
12:55 PM,63.0,36.0,37,29.97,10.0,Variable,4.6,-,N/A,,Clear,0,2012-10-09 19:55:00
1:55 PM,68.0,34.0,28,29.94,10.0,Calm,Calm,-,N/A,,Clear,0,2012-10-09 20:55:00
2:55 PM,69.1,30.0,23,29.92,10.0,Calm,Calm,-,N/A,,Clear,0,2012-10-09 21:55:00
3:55 PM,71.1,26.1,19,29.91,10.0,Variable,3.5,-,N/A,,Clear,0,2012-10-09 22:55:00
4:55 PM,71.1,27.0,19,29.91,10.0,West,6.9,-,N/A,,Clear,260,2012-10-09 23:55:00
5:55 PM,70.0,26.1,19,29.91,10.0,WSW,5.8,-,N/A,,Clear,250,2012-10-10 00:55:00
6:55 PM,62.1,25.0,24,29.94,10.0,Calm,Calm,-,N/A,,Clear,0,2012-10-10 01:55:00
7:55 PM,61.0,26.1,26,29.95,10.0,Calm,Calm,-,N/A,,Clear,0,2012-10-10 02:55:00
8:55 PM,55.9,28.0,34,29.94,10.0,West,3.5,-,N/A,,Clear,260,2012-10-10 03:55:00
9:55 PM,51.1,28.0,41,29.95,10.0,NE,3.5,-,N/A,,Clear,50,2012-10-10 04:55:00
10:55 PM,46.0,26.1,46,29.97,10.0,Calm,Calm,-,N/A,,Clear,0,2012-10-10 05:55:00
11:55 PM,43.0,25.0,49,29.96,10.0,Calm,Calm,-,N/A,,Clear,0,2012-10-10 06:55:00